Weather History for Resolute, NU

Change the Weather History Date:

Monday, October 31, 2011

  Actual Average Record
Temperature  
Mean Temperature 4 °F -  
Max Temperature 10 °F 3 °F 24 °F (2006)
Min Temperature -2 °F -3 °F -29 °F (2004)
Degree Days  
Heating Degree Days 61    
Moisture  
Dew Point -0 °F    
Average Humidity 77    
Maximum Humidity 92    
Minimum Humidity 59    
Precipitation  
Precipitation 0.01 in - - ()
Sea Level Pressure  
Sea Level Pressure 29.89 in    
Wind  
Wind Speed 22 mph ()    
Max Wind Speed 36 mph    
Max Gust Speed 41 mph    
Visibility 6.1 miles    
Events Snow    
Averages and records for this station are not official NWS values.
T = Trace of Precipitation, MM = Missing Value Source: Averaged Metar Reports

Daily Weather History Graph

Daily Weather History Graph

Search for Another Location

Airport:

Trip Planner

Search our weather history database for the weather conditions in past years. The results will help you decide how hot, cold, wet, or windy it might be!

Date:

Astronomy

Oct. 31, 2011 Rise Set
Actual Time 11:02 AM CDT 3:02 PM CDT
Civil Twilight 9:06 AM CDT 4:58 PM CDT
Nautical Twilight 7:27 AM CDT 6:37 PM CDT
Astronomical Twilight 5:55 AM CDT 8:08 PM CDT
Moon No Moon Rise No Moon Set
Length of Visible Light 7h 52m
Length of Day
3h 59m
Waxing Crescent, 30% of the Moon is Illuminated
Oct 31
Waxing Crescent
Nov 2
First Quarter
Nov 10
Full
Nov 18
Last Quarter
Nov 25
New

Hourly Weather History & Observations

Time (CDT) Temp. Windchill Dew Point Humidity Pressure Visibility Wind Dir Wind Speed Gust Speed Precip Events Conditions
12:00 AM -0.4 °F -19.9 °F -11.2 °F 60% 29.96 in 15.0 mi SE 15.0 mph - N/A   Clear
1:00 AM -0.4 °F -22.3 °F -9.4 °F 66% 29.96 in 15.0 mi ESE 19.6 mph - N/A   Clear
2:00 AM -0.4 °F -21.7 °F -9.4 °F 66% 29.95 in 15.0 mi ESE 18.4 mph - N/A   Clear
3:00 AM -0.4 °F -23.3 °F -7.6 °F 72% 29.95 in 15.0 mi SE 21.9 mph - N/A Snow Low Drifting Snow
4:00 AM -0.4 °F -21.7 °F -9.4 °F 66% 29.95 in 15.0 mi SE 18.4 mph 26.5 mph N/A Snow Low Drifting Snow
5:00 AM -0.4 °F -24.3 °F -9.4 °F 66% 29.94 in 15.0 mi SE 24.2 mph - N/A Snow Low Drifting Snow
6:00 AM -0.4 °F -24.7 °F -7.6 °F 72% 29.93 in 15.0 mi ESE 25.3 mph - N/A Snow Low Drifting Snow
7:00 AM 1 °F - -6 °F 59% 29.92 in 12 mi SE 19.6 mph - - Snow Low Drifting Snow
7:00 AM 1.4 °F -19.9 °F -5.8 °F 72% 29.92 in 12.0 mi SE 19.6 mph - N/A Snow Low Drifting Snow
8:00 AM 3.2 °F -20.3 °F -5.8 °F 66% 29.90 in 10.0 mi ESE 26.5 mph 32.2 mph N/A Snow Low Drifting Snow
9:00 AM 3.2 °F -20.7 °F -4.0 °F 72% 29.90 in 15.0 mi SE 27.6 mph - N/A Snow Low Drifting Snow
10:00 AM 3.2 °F -20.3 °F -2.2 °F 78% 29.87 in 10.0 mi SE 26.5 mph 32.2 mph N/A Snow Low Drifting Snow
10:30 AM - - - N/A% - 2.5 mi SE 32.2 mph - N/A   Unknown
10:45 AM - - - N/A% - 4.0 mi SE 28.8 mph - N/A   Unknown
11:00 AM 3.2 °F -19.9 °F -2.2 °F 78% 29.87 in 6.0 mi SE 25.3 mph 32.2 mph N/A Snow Blowing Snow
11:29 AM - - - N/A% - 6.0 mi SE 25.3 mph - N/A   Unknown
12:00 PM 6.8 °F -14.3 °F -0.4 °F 72% 29.87 in 4.0 mi SE 23.0 mph 28.8 mph N/A Snow Light Snow
1:00 PM 7 °F - 1 °F 68% 29.86 in 4 mi SE 28.8 mph - - Snow Light Snow
1:00 PM 6.8 °F -15.5 °F 1.4 °F 79% 29.86 in 4.0 mi SE 26.5 mph 32.2 mph N/A Snow Light Snow
1:13 PM - - - N/A% - 2.0 mi SE 28.8 mph - N/A   Unknown
2:00 PM 8.6 °F -11.9 °F 3.2 °F 79% 29.86 in 2.5 mi SE 23.0 mph 28.8 mph N/A Snow Light Snow
3:00 PM 8.6 °F -11.9 °F 5.0 °F 85% 29.86 in 4.0 mi SE 23.0 mph 28.8 mph N/A Snow Light Snow
3:25 PM - - - N/A% - 1.2 mi SE 23.0 mph 28.8 mph N/A   Unknown
4:00 PM 8.6 °F -12.3 °F 6.8 °F 92% 29.86 in 1.5 mi SE 24.2 mph 29.9 mph N/A Snow Light Snow
4:18 PM - - - N/A% - 3.0 mi ESE 26.5 mph - N/A   Unknown
5:00 PM 10.4 °F -10.7 °F 6.8 °F 85% 29.86 in 5.0 mi ESE 26.5 mph 32.2 mph N/A Snow Light Snow
6:00 PM 10.4 °F -9.9 °F 6.8 °F 85% 29.86 in 10.0 mi ESE 24.2 mph 29.9 mph N/A Snow Light Snow
6:35 PM - - - N/A% - 1.2 mi ESE 23.0 mph 29.9 mph N/A   Unknown
7:00 PM 10 °F - 8 °F 86% 29.85 in 1 mi ESE 25.3 mph - - Snow Blowing Snow
7:00 PM 10.4 °F -10.3 °F 8.6 °F 92% 29.85 in 1.0 mi ESE 25.3 mph 32.2 mph N/A Snow Blowing Snow
7:16 PM - - - N/A% - 0.5 mi ESE 28.8 mph 35.7 mph N/A   Unknown
8:00 PM 10.4 °F -13.0 °F 8.6 °F 92% 29.83 in 0.5 mi East 34.5 mph 40.3 mph N/A Snow Blowing Snow
8:31 PM - - - N/A% - 0.2 mi ESE 31.1 mph 36.8 mph N/A   Unknown
9:00 PM 10.4 °F -11.0 °F 8.6 °F 92% 29.85 in 0.2 mi East 27.6 mph 34.5 mph N/A Snow Heavy Blowing Snow
9:32 PM - - - N/A% - 2.0 mi ESE 28.8 mph 34.5 mph N/A   Unknown
10:00 PM 10.4 °F -13.0 °F 8.6 °F 92% 29.83 in 1.5 mi ESE 34.5 mph 40.3 mph N/A Snow Blowing Snow
10:41 PM - - - N/A% - 0.4 mi East 32.2 mph 38.0 mph N/A   Unknown
11:00 PM 10.4 °F -13.2 °F 8.6 °F 92% 29.83 in 0.2 mi East 35.7 mph 41.4 mph N/A Snow Heavy Blowing Snow